Theta_e
320 319 319 323 326 325 325 327 328 327 326 326 330 328 327 326 327 336 336 337 337 337 331 320 315 314 315 317 319 334 334 335 333 331 323 315 311 313 317 326 329 314 314 316 315 316 315 314 313
319 319 321 323 326 323 322 324 326 324 323 328 327 325 325 331 332 335 336 337 338 336 334 318 314 314 315 316 322 333 334 334 332 328 315 311 310 311 318 329 329 323 317 318 314 311 310 311 315
319 319 322 325 325 322 321 322 325 325 324 326 325 326 326 330 333 335 336 337 335 334 333 316 314 312 313 315 320 329 334 332 330 321 313 309 310 310 312 327 329 325 316 316 317 316 312 315 326
320 322 321 325 323 322 321 322 323 325 322 322 325 326 328 332 334 335 335 336 336 335 333 320 316 314 312 313 318 331 335 333 326 318 313 309 309 309 311 312 327 323 313 314 321 318 321 323 326
319 322 324 325 323 320 320 321 324 325 323 322 322 325 330 332 333 334 335 336 337 338 331 323 318 319 316 313 314 323 329 326 320 318 315 311 309 309 309 309 314 323 317 316 322 325 324 323 322
322 322 324 324 322 321 321 322 323 323 320 322 322 323 330 332 332 334 335 336 338 337 333 324 319 321 321 318 315 316 318 319 319 317 315 313 312 311 310 309 313 327 324 322 325 325 323 321 320
323 322 324 324 322 321 321 321 322 320 320 321 323 323 330 331 333 333 334 336 337 338 340 325 319 321 322 320 318 317 318 319 319 317 316 315 314 312 311 311 321 327 325 324 324 324 321 319 319
321 322 324 323 322 321 321 320 320 320 321 322 323 322 327 333 333 333 334 335 336 337 336 335 325 319 321 321 321 321 321 320 320 318 317 316 316 315 314 313 312 322 325 322 318 320 322 318 317
319 322 324 323 321 321 320 320 318 318 320 322 323 323 327 334 332 333 334 335 336 336 336 340 335 331 323 320 321 321 322 322 321 320 319 317 317 317 317 316 315 313 312 312 313 313 315 316 316
320 323 323 322 320 321 320 320 319 319 320 320 321 325 332 333 333 333 334 335 335 336 337 339 339 335 332 327 321 322 322 322 322 322 320 320 319 319 319 318 317 317 316 314 313 314 314 317 320
320 323 321 319 318 319 320 319 319 319 319 319 321 325 332 333 333 333 333 334 335 335 335 334 335 336 335 331 325 328 323 326 324 323 322 321 320 320 320 321 319 319 320 318 315 315 315 317 319
319 316 318 317 316 318 319 319 318 319 318 318 319 322 330 331 331 332 333 333 334 335 335 332 330 330 334 335 331 331 328 326 324 324 323 323 322 322 321 322 322 321 321 320 318 317 317 318 319
319 316 316 315 315 318 317 318 318 318 317 315 315 321 328 330 331 330 331 332 333 334 335 333 331 331 329 329 329 331 330 327 327 326 325 325 324 324 323 323 323 322 322 322 321 319 320 320 319
317 317 316 315 315 315 318 317 316 317 315 315 315 319 324 328 330 330 330 331 332 333 334 335 331 332 332 330 329 329 330 330 328 327 327 327 326 326 325 324 323 323 323 322 321 320 320 320 319
316 317 316 316 315 316 315 316 317 314 313 315 315 318 320 325 328 330 331 331 332 333 334 335 329 332 333 333 331 330 329 329 329 328 328 328 327 327 327 326 325 324 325 323 322 321 321 320 320
316 318 318 316 315 315 314 319 318 312 312 314 315 316 318 322 326 328 330 331 332 333 333 329 326 329 331 332 332 331 331 330 329 329 328 328 328 328 328 328 326 325 325 324 323 322 322 321 321
315 317 318 314 314 315 314 317 312 313 313 313 314 315 315 316 320 325 328 330 331 332 333 334 327 325 327 329 329 329 329 328 328 328 327 327 327 327 328 327 325 325 324 323 322 323 322 322 322
317 317 316 317 314 313 315 315 314 313 314 315 315 314 315 314 314 315 321 328 330 331 332 333 333 327 324 327 329 329 329 329 329 329 329 329 329 327 327 326 325 324 324 323 323 323 323 324 324
317 316 315 314 313 314 316 316 315 314 314 315 316 316 316 315 315 313 313 313 317 322 328 330 332 330 331 324 328 329 329 329 328 328 329 330 330 330 329 328 326 325 325 324 324 325 325 325 325
315 315 315 314 313 314 315 315 315 314 315 315 316 316 315 314 313 311 312 312 313 313 318 322 328 331 330 331 324 326 327 327 328 329 329 330 331 331 331 332 328 326 326 326 326 326 327 327 326
314 314 315 314 313 313 313 314 315 313 311 311 311 312 311 312 313 313 311 310 311 312 313 315 322 327 332 331 331 327 331 328 327 326 326 327 329 329 332 329 329 327 328 328 329 327 328 328 327
313 312 314 315 314 313 313 314 315 314 312 312 313 313 313 313 312 312 312 311 310 310 311 311 315 322 327 330 330 328 324 324 324 325 324 325 324 326 326 326 326 327 327 326 327 327 327 329 326
313 313 315 315 315 314 314 313 316 312 312 314 314 314 314 313 313 313 312 312 312 312 312 311 311 314 321 324 326 324 325 325 327 331 329 331 327 327 326 325 326 325 329 327 326 326 327 325 324
312 313 314 315 315 313 315 313 314 314 313 314 313 313 313 313 312 312 313 313 314 313 312 310 310 311 312 313 321 326 327 330 330 327 328 328 329 329 323 324 324 325 329 328 325 325 325 323 323
313 313 314 313 315 313 310 312 314 311 313 313 314 313 313 312 313 313 312 313 314 314 312 311 311 311 311 314 318 320 325 326 325 325 323 323 322 323 321 318 316 316 316 316 317 317 319 319 318
313 313 315 315 315 314 308 313 314 312 309 309 312 313 312 312 311 311 312 312 313 314 315 315 315 315 315 315 316 316 317 318 318 318 316 314 313 313 313 312 312 312 312 312 312 312 312 311 311
313 312 312 312 307 316 313 313 313 310 310 310 312 313 312 311 311 310 311 311 312 312 312 312 312 313 312 312 312 312 312 312 312 312 312 312 312 312 311 312 312 311 311 311 311 311 311 310 310
312 311 311 313 319 319 313 312 314 312 311 312 313 313 312 311 310 310 311 312 312 312 312 312 312 312 312 312 312 312 312 312 311 311 310 310 309 308 308 308 307 307 306 306 306 306 306 307 307
310 310 311 312 314 322 316 312 311 314 313 313 313 312 311 311 311 310 311 312 312 312 312 312 312 312 311 311 311 310 310 309 309 309 308 307 306 305 304 304 304 304 304 304 304 303 303 302 302
311 312 311 313 312 311 315 315 308 312 313 313 313 312 311 311 310 310 311 311 311 311 311 311 311 311 310 309 309 309 308 306 305 304 304 303 304 304 304 304 303 302 302 301 301 300 300 300 300
Wind_Speed
5 5 4 2 6 5 5 5 6 6 6 4 5 5 9 10 7 4 13 13 16 15 12 12 11 10 12 13 16 15 13 12 7 7 9 12 12 12 13 15 15 12 12 11 11 10 11 13 14
4 3 2 6 5 6 7 8 7 6 9 7 4 1 1 9 8 11 12 15 17 16 13 12 12 11 12 14 16 15 13 10 5 6 8 13 11 10 14 16 13 11 12 13 11 11 13 14 16
2 2 11 3 4 2 7 8 11 10 7 4 3 2 3 7 7 13 11 20 18 16 12 14 13 12 13 14 16 14 12 9 5 6 9 12 10 10 11 16 11 8 11 11 13 12 12 14 15
1 5 5 7 6 6 3 9 13 11 4 2 1 5 6 5 12 8 19 19 18 16 12 14 14 13 14 14 15 12 11 7 5 7 11 11 9 8 11 11 14 7 12 13 14 14 14 14 13
3 5 5 4 5 4 2 9 12 9 7 6 3 5 5 6 7 14 20 18 17 16 13 14 12 12 13 12 13 12 9 6 7 10 10 9 9 9 10 10 9 11 13 13 16 14 11 11 9
7 5 5 7 6 5 6 9 9 8 5 5 4 5 7 8 10 17 20 17 15 14 13 12 12 11 11 11 12 11 8 8 8 9 9 9 9 8 9 9 10 13 8 11 14 10 10 7 8
10 7 7 5 9 7 7 10 9 8 7 5 3 5 7 12 12 18 19 17 15 12 11 12 11 11 11 11 11 11 9 8 7 8 8 9 8 8 8 9 12 11 7 8 9 8 4 6 7
7 6 4 6 8 5 9 11 5 7 6 5 2 4 9 15 16 19 18 17 15 13 12 12 11 11 10 10 9 9 8 7 6 7 7 7 7 7 7 6 7 9 7 5 5 5 4 4 5
4 6 8 8 7 9 14 8 6 3 6 4 4 5 11 18 19 21 19 17 16 14 12 13 11 10 9 9 9 8 7 6 5 5 5 4 5 5 5 5 5 5 4 4 3 2 2 3 2
8 9 8 4 3 12 17 9 11 7 9 6 7 7 14 19 22 23 21 20 18 15 14 12 14 13 10 10 10 9 8 6 5 4 3 3 2 2 2 2 3 3 3 4 4 3 2 2 4
7 10 6 6 4 11 15 8 9 7 7 8 12 12 15 18 21 22 22 20 21 19 16 16 16 14 13 10 11 9 8 7 6 5 3 3 2 2 1 1 2 2 2 3 2 2 1 1 1
9 2 3 5 4 9 15 12 7 9 6 5 6 14 16 18 20 21 22 21 20 20 19 20 19 18 16 13 11 9 10 9 8 7 6 5 4 3 3 2 1 1 0 1 1 1 1 1 2
8 7 5 5 6 7 9 9 3 8 8 7 8 13 15 16 18 18 18 19 20 21 20 20 21 21 20 20 16 13 12 12 11 10 9 8 7 6 6 5 5 4 4 2 2 2 2 2 3
7 11 10 6 7 4 5 5 2 5 8 9 8 11 14 16 17 17 19 20 20 20 20 19 24 23 22 22 20 18 15 12 13 12 12 11 10 9 9 8 8 7 7 6 4 3 4 5 6
17 8 6 7 5 3 2 5 8 8 7 9 11 12 13 15 17 19 18 19 20 20 20 20 24 24 24 23 22 20 18 17 15 15 15 14 13 13 12 12 11 10 9 9 10 10 10 11 13
9 9 8 7 5 2 3 7 9 5 8 9 10 14 13 14 17 17 17 18 18 19 20 21 21 23 24 23 22 20 19 18 17 17 16 16 15 15 15 14 14 14 12 12 14 13 14 16 18
7 11 15 6 6 2 6 6 9 4 4 11 11 12 13 13 13 16 18 18 19 19 18 19 20 21 22 22 21 20 19 18 17 15 15 15 15 16 18 16 16 17 15 15 15 16 17 19 21
14 15 9 12 8 5 8 11 5 6 3 6 8 10 10 11 11 13 16 18 19 20 20 19 21 22 22 23 23 23 22 21 20 18 16 15 15 16 17 17 16 15 16 17 17 19 21 24 26
13 17 12 7 2 6 13 11 11 7 6 9 10 10 9 9 7 11 14 17 21 22 23 23 22 22 22 24 26 27 26 25 23 22 20 19 19 18 19 19 17 20 20 19 22 23 26 28 29
11 15 11 4 2 4 5 12 11 12 12 11 11 11 9 8 7 9 15 18 20 22 24 25 25 23 25 23 25 26 26 26 25 24 24 23 24 22 20 22 22 23 25 25 27 28 30 31 30
10 14 11 3 7 2 4 9 11 5 6 6 8 8 8 6 6 6 11 14 19 23 25 25 25 24 23 22 22 22 25 26 25 25 24 22 23 22 23 21 25 23 26 29 30 30 33 34 34
9 3 11 11 11 5 3 3 8 9 10 7 7 6 6 4 4 5 6 9 14 18 22 27 25 24 23 21 21 25 24 23 21 20 19 18 16 16 16 17 19 22 24 27 26 27 31 31 38
5 8 10 8 4 1 6 5 4 7 8 8 8 7 5 4 5 5 5 5 7 9 11 17 24 22 20 22 20 23 22 21 19 14 14 14 15 16 17 19 19 21 22 24 26 26 27 29 31
16 13 10 6 2 5 6 7 7 6 11 10 7 7 5 6 6 7 8 7 6 6 7 11 16 19 20 19 17 14 15 16 15 14 15 13 13 15 18 18 20 21 23 25 27 27 28 30 32
12 16 5 5 5 4 2 4 7 5 5 10 10 8 8 8 8 9 10 11 11 10 10 9 10 12 13 14 14 15 12 11 11 13 14 13 13 14 14 16 17 18 18 20 22 24 27 29 31
15 16 6 7 6 6 1 8 4 7 7 6 10 10 10 10 11 12 13 15 16 16 16 15 14 13 11 9 8 6 6 4 4 3 4 5 6 8 9 11 13 15 17 19 21 24 26 28 30
12 9 4 6 2 2 6 5 7 7 7 11 13 14 13 12 13 15 17 19 22 22 22 20 19 19 17 15 14 12 10 7 5 3 1 2 5 7 9 11 13 16 18 20 22 25 26 29 31
6 11 4 3 6 5 6 5 5 10 14 13 15 18 18 15 14 15 18 21 22 21 21 19 18 17 16 14 13 11 9 7 5 4 4 5 7 9 11 12 14 15 17 19 21 23 25 27 28
4 6 5 3 2 4 4 5 1 11 17 18 21 22 21 20 18 16 18 19 20 19 18 17 15 14 14 12 11 9 8 6 5 4 5 6 8 10 12 14 17 19 22 24 26 28 29 31 32
4 8 12 6 4 0 2 2 1 4 17 21 23 23 21 19 18 19 19 18 18 17 16 14 14 12 12 11 9 8 7 6 6 6 7 9 11 14 17 20 22 24 26 28 29 30 31 33 35
Wind_Direction
58 50 17 293 235 249 123 142 101 129 134 68 78 325 34 28 9 32 138 132 141 143 156 145 142 141 132 134 128 119 122 123 103 76 73 79 84 86 87 92 77 88 101 96 102 96 91 94 95
55 43 357 259 247 190 136 121 163 98 84 118 111 154 152 77 57 116 137 137 141 139 137 147 136 128 127 131 131 124 133 125 98 70 68 82 88 89 90 86 82 67 83 84 85 92 94 96 99
57 74 257 253 278 118 136 169 115 113 118 153 141 9 23 74 91 124 151 140 139 136 144 141 125 122 117 122 134 135 134 128 98 64 73 81 89 84 77 100 98 76 79 82 87 85 91 94 90
250 219 222 244 165 65 73 160 133 135 136 169 290 104 90 63 129 134 146 144 142 142 152 132 130 126 122 130 142 130 132 128 102 91 80 84 92 90 81 89 102 82 76 79 90 73 69 86 98
225 237 221 227 137 109 134 137 159 164 150 161 184 109 87 113 123 139 148 147 149 146 154 141 130 127 123 131 142 142 138 124 92 79 82 89 92 85 78 74 95 90 75 90 84 82 79 80 101
210 268 220 196 154 142 136 152 168 162 159 138 188 130 102 143 133 150 152 151 153 157 164 151 137 128 130 136 140 140 140 116 97 86 88 89 87 88 84 79 85 94 77 84 91 87 84 63 92
238 221 226 206 150 165 147 162 172 163 160 159 117 137 122 144 150 157 154 156 159 159 162 154 145 146 145 141 140 143 136 121 109 101 93 90 88 86 82 82 96 106 100 94 99 102 79 79 93
230 239 193 221 174 140 146 160 170 172 139 135 174 150 154 158 152 158 157 162 165 167 174 157 165 161 158 151 151 149 143 129 116 100 92 90 88 88 87 86 95 135 139 147 118 120 121 85 75
214 222 206 180 193 141 159 162 164 149 137 161 159 94 127 155 154 159 163 168 172 176 181 175 166 166 168 171 169 161 158 152 141 120 101 96 91 85 81 81 76 98 142 137 140 111 90 76 53
219 222 206 157 148 158 169 182 157 168 156 172 161 116 147 155 162 167 174 176 180 185 184 194 187 176 178 183 182 182 179 174 170 162 135 107 97 97 107 115 113 109 130 127 139 133 120 82 357
199 210 115 150 137 154 160 178 164 187 184 173 182 161 164 169 172 178 182 187 186 189 192 200 199 193 194 189 194 192 192 194 198 200 195 201 207 187 214 155 168 116 71 79 117 137 143 201 193
184 98 122 140 154 163 164 152 183 194 105 122 131 171 169 180 187 190 191 191 193 195 199 202 207 205 201 204 199 209 209 213 217 223 224 229 235 240 244 257 247 230 50 201 192 211 236 319 351
208 140 110 127 147 171 143 167 129 194 165 147 151 167 180 188 194 199 204 202 203 202 203 216 217 216 216 220 217 211 218 227 231 235 235 238 242 245 245 245 245 245 243 251 245 257 269 317 327
139 138 129 137 146 149 189 159 184 175 176 188 189 175 190 196 197 199 203 208 208 210 211 213 223 222 223 227 227 227 222 235 231 240 246 246 249 252 253 254 253 253 250 246 242 265 266 278 286
142 124 144 162 169 135 226 211 215 146 147 189 201 191 189 199 202 205 207 210 213 213 211 215 227 224 227 228 232 232 234 233 238 245 250 253 252 256 258 258 259 258 255 258 254 266 269 274 287
154 173 177 160 190 156 232 227 154 161 200 208 197 201 194 201 205 208 209 213 215 214 216 224 227 223 227 231 233 237 241 243 248 249 253 255 256 258 261 261 267 267 263 264 271 274 282 281 286
194 194 207 154 198 150 222 259 113 150 163 211 203 206 203 211 212 211 214 212 213 216 216 219 229 229 228 232 235 239 240 244 248 249 251 259 260 257 259 262 260 256 261 269 272 279 282 285 287
182 216 197 204 179 203 207 250 141 159 169 208 205 205 205 208 220 224 216 217 214 214 215 218 221 228 231 233 237 241 244 246 249 252 257 259 265 263 260 262 265 263 260 268 273 273 278 280 282
187 206 201 189 128 205 224 245 246 222 214 220 225 223 212 220 210 212 217 222 224 223 221 219 218 225 229 232 235 240 246 250 254 258 262 264 265 263 264 266 268 269 270 275 276 276 278 281 284
176 199 195 119 117 220 210 256 246 235 230 233 234 234 232 220 230 233 235 231 230 229 229 225 223 222 225 236 240 243 250 256 260 266 267 266 267 269 267 265 272 271 273 274 275 279 280 281 284
189 199 178 206 149 221 291 260 225 186 222 219 225 234 243 219 211 231 238 233 230 228 226 227 224 222 223 222 245 243 245 254 257 259 263 268 269 269 269 269 272 267 274 276 277 278 282 277 287
183 205 143 143 173 209 212 248 182 177 185 193 196 181 190 175 172 207 209 219 227 231 232 229 221 219 220 221 221 242 248 253 261 267 271 274 273 272 274 272 269 269 273 276 275 280 279 281 286
116 152 141 149 163 221 190 244 171 159 198 180 173 153 162 144 142 149 173 190 209 222 231 224 217 216 218 220 221 242 243 246 251 255 274 276 280 280 282 285 283 278 277 280 279 281 283 287 285
137 124 108 107 146 239 207 236 235 184 205 161 156 148 143 127 125 126 126 125 131 149 174 189 201 207 214 218 217 227 241 242 247 247 254 264 267 276 286 285 282 280 277 279 281 283 279 278 281
163 168 154 187 200 236 68 219 239 126 148 158 159 152 137 129 119 117 120 120 114 114 118 138 167 186 194 198 204 214 221 228 239 245 254 263 272 277 281 286 289 291 291 291 289 288 287 286 285
194 189 172 186 193 188 122 224 221 112 127 153 144 144 137 134 131 123 122 119 116 112 110 113 120 127 133 143 152 160 169 181 208 238 265 278 291 294 298 301 302 303 303 301 299 297 296 296 296
176 206 61 105 57 193 193 233 190 160 164 164 149 147 145 141 135 129 124 120 118 116 113 110 111 112 112 113 113 114 115 118 119 108 34 329 319 312 307 308 307 305 304 303 302 301 301 300 301
210 147 152 223 153 219 189 246 224 196 183 169 162 159 151 145 139 135 134 129 124 120 117 117 116 115 113 112 111 107 101 96 86 59 25 357 342 335 332 329 328 326 324 322 319 316 314 310 308
152 183 218 223 230 208 172 235 107 193 183 173 170 164 158 154 152 147 144 137 132 129 125 122 121 119 117 114 109 106 96 79 57 31 11 353 343 339 338 337 333 328 325 322 318 315 313 311 310
278 216 194 205 179 339 26 259 358 234 173 171 162 162 160 158 155 154 150 145 140 137 133 131 125 126 119 111 103 92 78 58 34 17 3 354 343 336 331 328 326 324 322 321 320 317 316 315 313